Seretse Khama, Botswana

11:34 AM CAT on January 22, 2018 (GMT +0200)
Seretse Khama

Weather History for FBSK - March, 2013

Change the Weather History Date:

Wednesday, March 20, 2013

  Actual Average Record
Temperature  
Mean Temperature 78 °F -  
Max Temperature 91 °F 80 °F 96 °F (2002)
Min Temperature 66 °F 58 °F 51 °F (2007)
Cooling Degree Days 14    
Growing Degree Days 28 (Base 50)    
Moisture  
Dew Point 53 °F    
Average Humidity 42    
Maximum Humidity 57    
Minimum Humidity 24    
Precipitation  
Precipitation 0.00 in - - ()
Sea Level Pressure  
Sea Level Pressure 30.07 in    
Wind  
Wind Speed 7 mph ()    
Max Wind Speed 18 mph    
Max Gust Speed 24 mph    
Visibility 6.2 miles    
Events      
Averages and records for this station are not official NWS values.
T = Trace of Precipitation, MM = Missing Value Source: Averaged Metar Reports

Daily Weather History Graph

Daily Weather History Graph

Search for Another Location

Airport or City:

Trip Planner

Search our weather history database for the weather conditions in past years. The results will help you decide how hot, cold, wet, or windy it might be!

Date:

Astronomy

Mar. 20, 2013 Rise Set
Actual Time 6:19 AM CAT 6:27 PM CAT
Civil Twilight 5:57 AM CAT 6:49 PM CAT
Nautical Twilight 5:30 AM CAT 7:16 PM CAT
Astronomical Twilight 5:04 AM CAT 7:42 PM CAT
Moon 1:35 PM CAT (3/20) No Moon Set
Length of Visible Light 12h 52m
Length of Day
12h 07m
First Quarter, 57% of the Moon is Illuminated
Mar 20
First Quarter
Mar 27
Full
Apr 3
Last Quarter
Apr 10
New
Apr 18
First Quarter

Hourly Weather History & Observations

Time (CAT) Temp. Heat Index Dew Point Humidity Pressure Visibility Wind Dir Wind Speed Gust Speed Precip Events Conditions
2:00 AM 68.0 °F - 48.2 °F 49% 29.98 in - North 4.6 mph - N/A   Clear
3:00 AM 68.0 °F - 48.2 °F 49% 29.98 in - Variable 2.3 mph - N/A   Clear
4:00 AM 68.0 °F - 46.4 °F 46% 29.98 in - South 3.5 mph - N/A   Clear
5:00 AM 66.2 °F - 48.2 °F 52% 30.01 in - ESE 8.1 mph - N/A   Clear
6:00 AM 69.8 °F - 51.8 °F 53% 30.06 in - ENE 10.4 mph - N/A   Clear
7:00 AM 68.0 °F - 51.8 °F 56% 30.09 in - ESE 8.1 mph - N/A   Clear
8:00 AM 75.2 °F - 57.2 °F 53% 30.12 in - ENE 12.7 mph - N/A   Clear
9:00 AM 77.0 °F - 60.8 °F 57% 30.15 in - NE 17.3 mph - N/A   Clear
10:00 AM 80.6 °F 81.8 °F 62.6 °F 54% 30.15 in 6.2 mi NE 18.4 mph - N/A   Scattered Clouds
12:00 PM 86.0 °F 86.1 °F 60.8 °F 43% 30.12 in 6.2 mi NE 12.7 mph 24.2 mph N/A   Partly Cloudy
1:00 PM 87.8 °F 87.6 °F 60.8 °F 40% 30.09 in 6.2 mi NE 13.8 mph - N/A   Partly Cloudy
2:00 PM 87.8 °F 86.5 °F 57.2 °F 35% 30.06 in 6.2 mi ENE 12.7 mph - N/A   Scattered Clouds
3:00 PM 89.6 °F 87.3 °F 53.6 °F 29% 30.04 in 6.2 mi NE 9.2 mph - N/A   Scattered Clouds
4:00 PM 91.4 °F - 50.0 °F 24% 30.04 in 6.2 mi Variable 6.9 mph - N/A   Scattered Clouds
5:00 PM 89.6 °F - 50.0 °F 26% 30.04 in 6.2 mi ENE 6.9 mph - N/A   Scattered Clouds
6:00 PM 89.6 °F - 50.0 °F 26% 30.06 in 6.2 mi East 9.2 mph - N/A   Partly Cloudy
7:00 PM 89.6 °F - 50.0 °F 26% 30.06 in 6.2 mi East 9.2 mph - N/A   Partly Cloudy
8:00 PM 80.6 °F - 51.8 °F 37% 30.09 in - NE 6.9 mph - N/A   Clear
9:00 PM 80.6 °F - 51.8 °F 37% 30.09 in - NE 6.9 mph - N/A   Clear
10:00 PM 78.8 °F - 53.6 °F 42% 30.12 in - NE 8.1 mph - N/A   Clear
11:00 PM 77.0 °F - 55.4 °F 47% 30.12 in - NE 10.4 mph - N/A   Clear